Weather History for La Porte, IN

Change the Weather History Date:

Sunday, August 18, 2013

  Actual Average (KVPZ) Record (KVPZ)
Temperature  
Mean Temperature 66 °F 71 °F  
Max Temperature 79 °F 80 °F 84 °F (2011)
Min Temperature 52 °F 61 °F 49 °F (2012)
Degree Days  
Heating Degree Days 0 0  
Month to date heating degree days 0  
Since 1 June heating degree days 45  
Since 1 July heating degree days 4  
Cooling Degree Days 0 6  
Month to date cooling degree days 118  
Year to date cooling degree days 569  
Since 1 June cooling degree days 522  
Growing Degree Days 16 (Base 50)    
Moisture  
Dew Point 56 °F    
Average Humidity 73    
Maximum Humidity 98    
Minimum Humidity 38    
Precipitation  
Precipitation 0.00 in 0.15 in 0.50 in (2001)
Month to date precipitation 2.46  
Year to date precipitation 23.69  
Sea Level Pressure  
Sea Level Pressure 30.18 in    
Wind  
Wind Speed 1 mph (NE)    
Max Wind Speed 9 mph    
Max Gust Speed 10 mph    
Visibility 10 miles    
Events      
T = Trace of Precipitation, MM = Missing Value Source: NWS Daily Summary

Daily Weather History Graph

Daily Weather History Graph

Search for Another Location

Airport:

Trip Planner

Search our weather history database for the weather conditions in past years. The results will help you decide how hot, cold, wet, or windy it might be!

Date:

Astronomy

Aug. 18, 2013 Rise Set
Actual Time 5:58 AM CDT 7:41 PM CDT
Civil Twilight 5:29 AM CDT 8:11 PM CDT
Nautical Twilight 4:53 AM CDT 8:46 PM CDT
Astronomical Twilight 4:15 AM CDT 9:25 PM CDT
Moon 5:48 PM CDT (8/18) 3:06 AM CDT (8/18)
Length of Visible Light 14h 41m
Length of Day
13h 42m
Waxing Gibbous, 92% of the Moon is Illuminated
Aug 18
Waxing Gibbous
Aug 20
Full
Aug 28
Last Quarter
Sep 5
New
Sep 12
First Quarter

Hourly Weather History & Observations

Time (CDT) Temp. Dew Point Humidity Pressure Visibility Wind Dir Wind Speed Gust Speed Precip Events Conditions
12:15 AM 56.7 °F 55.6 °F 96% 30.19 in 10.0 mi Calm Calm - N/A   Scattered Clouds
12:35 AM 55.4 °F 53.6 °F 94% 30.19 in 10.0 mi Calm Calm - N/A   Scattered Clouds
12:55 AM 55.4 °F 53.8 °F 94% 30.19 in 10.0 mi Calm Calm - N/A   Scattered Clouds
1:15 AM 56.3 °F 54.3 °F 93% 30.19 in 10.0 mi Calm Calm - N/A   Scattered Clouds
1:35 AM 56.5 °F 54.1 °F 92% 30.19 in 10.0 mi East 3.5 mph - N/A   Scattered Clouds
1:55 AM 56.3 °F 54.1 °F 92% 30.19 in 10.0 mi Calm Calm - N/A   Scattered Clouds
2:15 AM 56.1 °F 54.5 °F 94% 30.20 in 10.0 mi Calm Calm - N/A   Clear
2:35 AM 55.2 °F 53.4 °F 94% 30.20 in 10.0 mi Calm Calm - N/A   Clear
2:55 AM 54.9 °F 53.1 °F 94% 30.19 in 10.0 mi Calm Calm - N/A   Clear
3:15 AM 54.1 °F 52.5 °F 94% 30.19 in 10.0 mi Calm Calm - N/A   Clear
3:35 AM 54.3 °F 52.7 °F 94% 30.19 in 10.0 mi Calm Calm - N/A   Clear
3:55 AM 54.0 °F 52.7 °F 95% 30.18 in 10.0 mi Calm Calm - N/A   Clear
4:15 AM 53.8 °F 52.7 °F 96% 30.18 in 10.0 mi Calm Calm - N/A   Clear
4:35 AM 54.0 °F 52.7 °F 95% 30.19 in 10.0 mi Calm Calm - N/A   Clear
4:55 AM 53.8 °F 52.7 °F 96% 30.19 in 7.0 mi Calm Calm - N/A   Clear
5:15 AM 52.9 °F 51.8 °F 96% 30.19 in 10.0 mi Calm Calm - N/A   Clear
5:35 AM 53.1 °F 52.2 °F 97% 30.20 in 7.0 mi Calm Calm - N/A   Clear
5:55 AM 52.7 °F 51.8 °F 97% 30.20 in 10.0 mi Calm Calm - N/A   Clear
6:15 AM 53.4 °F 52.7 °F 97% 30.21 in 7.0 mi Calm Calm - N/A   Clear
6:35 AM 54.0 °F 53.4 °F 98% 30.21 in 10.0 mi NNE 3.5 mph - N/A   Clear
6:55 AM 56.1 °F 54.9 °F 96% 30.21 in 10.0 mi NNE 4.6 mph - N/A   Clear
7:15 AM 59.5 °F 57.0 °F 91% 30.21 in 10.0 mi Calm Calm - N/A   Clear
7:35 AM 61.9 °F 57.9 °F 87% 30.22 in 10.0 mi Calm Calm - N/A   Clear
7:55 AM 62.8 °F 57.4 °F 82% 30.22 in 10.0 mi East 3.5 mph - N/A   Clear
8:15 AM 63.9 °F 58.3 °F 82% 30.22 in 10.0 mi East 4.6 mph - N/A   Clear
8:35 AM 65.3 °F 58.8 °F 80% 30.23 in 10.0 mi ESE 4.6 mph - N/A   Clear
8:55 AM 66.2 °F 59.4 °F 79% 30.23 in 10.0 mi SE 3.5 mph - N/A   Clear
9:15 AM 67.5 °F 59.5 °F 76% 30.23 in 10.0 mi Calm Calm - N/A   Clear
9:35 AM 69.3 °F 60.3 °F 73% 30.23 in 10.0 mi Calm Calm - N/A   Clear
9:55 AM 71.1 °F 60.4 °F 69% 30.23 in 10.0 mi Calm Calm - N/A   Clear
10:15 AM 72.3 °F 60.3 °F 66% 30.23 in 10.0 mi ENE 4.6 mph - N/A   Clear
10:35 AM 73.2 °F 59.4 °F 62% 30.22 in 10.0 mi NE 8.1 mph - N/A   Clear
10:55 AM 74.8 °F 58.6 °F 57% 30.22 in 10.0 mi East 5.8 mph - N/A   Clear
11:15 AM 75.4 °F 57.9 °F 54% 30.21 in 10.0 mi ESE 5.8 mph - N/A   Clear
11:35 AM 76.3 °F 56.8 °F 51% 30.21 in 10.0 mi ESE 3.5 mph - N/A   Clear
11:55 AM 76.6 °F 56.1 °F 49% 30.21 in 10.0 mi Calm Calm - N/A   Scattered Clouds
12:15 PM 76.8 °F 56.8 °F 50% 30.20 in 10.0 mi ENE 5.8 mph - N/A   Scattered Clouds
12:35 PM 76.6 °F 56.8 °F 50% 30.20 in 10.0 mi NE 4.6 mph - N/A   Clear
12:55 PM 77.0 °F 55.8 °F 48% 30.19 in 10.0 mi Calm Calm - N/A   Clear
1:15 PM 77.5 °F 55.0 °F 46% 30.19 in 10.0 mi Calm Calm - N/A   Clear
1:35 PM 78.3 °F 55.8 °F 46% 30.18 in 10.0 mi Calm Calm - N/A   Clear
1:55 PM 78.6 °F 51.3 °F 38% 30.18 in 10.0 mi South 3.5 mph - N/A   Scattered Clouds
2:15 PM 79.2 °F 55.2 °F 44% 30.17 in 10.0 mi Calm Calm - N/A   Scattered Clouds
2:35 PM 79.7 °F 54.5 °F 42% 30.16 in 10.0 mi South 4.6 mph - N/A   Mostly Cloudy
2:55 PM 78.8 °F 54.0 °F 42% 30.16 in 10.0 mi SW 3.5 mph - N/A   Scattered Clouds
3:15 PM 79.3 °F 54.7 °F 42% 30.15 in 10.0 mi Calm Calm - N/A   Clear
3:35 PM 79.3 °F 55.4 °F 44% 30.15 in 10.0 mi SW 5.8 mph - N/A   Clear
3:55 PM 79.2 °F 54.7 °F 43% 30.15 in 10.0 mi Calm Calm - N/A   Clear
4:15 PM 79.0 °F 54.3 °F 42% 30.14 in 10.0 mi Calm Calm - N/A   Scattered Clouds
4:35 PM 79.0 °F 54.5 °F 43% 30.14 in 10.0 mi Calm Calm - N/A   Mostly Cloudy
4:55 PM 79.2 °F 57.7 °F 48% 30.14 in 10.0 mi NW 6.9 mph - N/A   Mostly Cloudy
5:15 PM 77.5 °F 58.3 °F 51% 30.14 in 10.0 mi NNW 5.8 mph 10.4 mph N/A   Scattered Clouds
5:35 PM 76.6 °F 58.1 °F 53% 30.13 in 10.0 mi NNW 5.8 mph - N/A   Clear
5:55 PM 75.9 °F 57.7 °F 53% 30.13 in 10.0 mi North 9.2 mph - N/A   Clear
6:15 PM 74.7 °F 58.1 °F 56% 30.13 in 10.0 mi NNE 6.9 mph - N/A   Clear
6:35 PM 73.4 °F 57.4 °F 57% 30.14 in 10.0 mi North 8.1 mph - N/A   Clear
6:55 PM 71.8 °F 57.6 °F 61% 30.14 in 10.0 mi NNE 6.9 mph - N/A   Clear
7:15 PM 70.5 °F 56.8 °F 62% 30.14 in 10.0 mi NNE 3.5 mph - N/A   Clear
7:35 PM 68.0 °F 56.7 °F 67% 30.14 in 10.0 mi Calm Calm - N/A   Clear
7:55 PM 65.8 °F 56.7 °F 72% 30.14 in 10.0 mi Calm Calm - N/A   Clear
8:15 PM 64.0 °F 56.3 °F 76% 30.14 in 10.0 mi Calm Calm - N/A   Clear
8:35 PM 62.6 °F 56.7 °F 81% 30.14 in 10.0 mi Calm Calm - N/A   Clear
8:55 PM 61.5 °F 57.2 °F 86% 30.15 in 10.0 mi Calm Calm - N/A   Clear
9:15 PM 61.0 °F 56.5 °F 85% 30.15 in 10.0 mi Calm Calm - N/A   Clear
9:35 PM 61.5 °F 56.3 °F 83% 30.15 in 10.0 mi Calm Calm - N/A   Clear
9:55 PM 59.9 °F 56.5 °F 88% 30.15 in 10.0 mi Calm Calm - N/A   Clear
10:15 PM 61.0 °F 55.4 °F 82% 30.15 in 10.0 mi Calm Calm - N/A   Scattered Clouds
10:35 PM 58.6 °F 55.4 °F 89% 30.14 in 10.0 mi Calm Calm - N/A   Scattered Clouds
10:55 PM 57.9 °F 54.9 °F 90% 30.14 in 10.0 mi Calm Calm - N/A   Scattered Clouds
11:15 PM 57.6 °F 55.0 °F 91% 30.15 in 10.0 mi Calm Calm - N/A   Scattered Clouds
11:35 PM 57.9 °F 54.5 °F 88% 30.14 in 10.0 mi Calm Calm - N/A   Clear
11:55 PM 57.9 °F 54.7 °F 89% 30.14 in 10.0 mi Calm Calm - N/A   Clear